www.pogodaiklimat.ru

Погода и климат >> Архив погоды >> Россия >> Нижегородская область >> Арзамас


ПОГОДА в Арзамасе

АРХИВ ПОГОДЫ в Арзамасе

Время (UTC), дата Ветер
(напр.,м/с)
 
Видим.   Явления Облачность Т
(С)
Тd
(С)
f
(%)
Тe
(С)
Тes
(С)
Комфортность P
(гПа)
Po
(гПа)
Тmin
(С)
Tmax
(С)
R
(мм)
R24
(мм)
S
(см)
12 21.05 СВ 7-9
{10}
20 км ясно +18.1 +1.3 32 +17 +20 по сезону 1027.4 1012.6
15 21.05 СВ 3-7
{10}
20 км ясно +18.7 +1.5 32 +19 +21 тепло 1026.9 1012.2 +18.7
18 21.05 СВ 1-3
{5}
4000 м ясно +11.1 +4.0 62 +11 +11 по сезону 1028.7 1013.5
21 21.05 СВ 1-2
{3}
4000 м ясно +7.3 +3.8 78 +7 +7 прохладно 1029.6 1014.2
00 22.05 СВ 2-2
{3}
4000 м ясно +5.1 +2.4 83 +3 +3 прохладно 1030.7 1015.2
03 22.05 СВ 2-3
{4}
20 км ясно +9.9 +4.0 67 +9 +10 по сезону 1031.6 1016.3 +4.1
06 22.05 ЮВ 3-6
{6}
20 км ясно +17.8 +0.2 30 +18 +26 тепло 1031.4 1016.9
09 22.05 ЮВ 3-5
{7}
20 км 4/0
[Ci fib]
+21.9 +1.7 26 +22 +33 комфорт 1030.4 1015.8
12 22.05 ЮВ 2-4
{5}
20 км 3/0
[Ci fib]
+23.8 0.0 21 +23 +32 комфорт 1028.8 1014.3
15 22.05 ЮВ 2-4
{7}
20 км 3/0
[Ci sp]
+24.1 +0.6 21 +23 +25 комфорт 1027.3 1012.8 +24.5
18 22.05 В 1-2
{5}
4000 м 9/0
[Ac trans]
+17.0 +8.2 56 +18 +18 тепло 1027.6 1012.8
21 22.05 ЮВ 2-3
{4}
4000 м 10/0
[As op]
+18.4 +4.6 40 +19 +19 тепло 1027.0 1012.3
00 23.05 ЮВ 3-4
{5}
4000 м 10/0
[As op]
+18.0 +6.1 46 +18 +18 тепло 1026.6 1011.9
03 23.05 Ю 2-4
{5}
4000 м 9/3 300 м
[Sc As trans]
+17.4 +9.2 59 +18 +18 тепло 1026.7 1011.9 +16.0
06 23.05 Ю 2-4
{6}
20 км 10/0
[Ac und]
+17.8 +10.7 63 +18 +21 тепло 1026.6 1011.9
09 23.05 Ю 3-6
{7}
20 км {дождь} 8/8 300 м
[Sc]
+23.2 +10.3 44 +25 +28 комфорт 1024.5 1010.1
12 23.05 Ю 5-9
{9}
20 км {дождь} 8/8 300 м
[Sc diur, vesp Ac trans]
+23.4 +13.2 53 +27 +28 душно 1023.1 1008.7
15 23.05 Ю 3-6
{9}
20 км 9/3 300 м
[Sc diur, vesp Ci fib]
+23.9 +7.0 34 +24 +25 комфорт 1021.4 1007.1 +24.5 0.0
18 23.05 ЮВ 1-2
{6}
4000 м 6/0
[Ac As Ci fib]
+19.0 +9.2 53 +21 +21 комфорт 1021.2 1006.6
21 23.05 штиль 0
{2}
4000 м ясно +11.7 +9.5 86 +11 +11 по сезону 1021.4 1006.5
00 24.05 В 1-1
{3}
4000 м 3/0
[Ci fib]
+11.2 +8.8 85 +11 +11 тепло 1021.7 1006.7
03 24.05 СВ 1-2
{2}
20 км 10/3 300 м
[Sc Ac lent Cs]
+14.2 +11.0 81 +15 +15 тепло 1021.5 1006.7 +10.4
06 24.05 В 3-5
{6}
20 км 10/10 300 м
[Sc]
+19.4 +10.5 56 +21 +21 комфорт 1020.6 1006.0
09 24.05 В 1-2
{5}
20 км 10/3 300 м
[Sc Ac As]
+21.4 +10.9 51 +23 +27 комфорт 1020.5 1006.0
12 24.05 С 1-2
{6}
20 км слабый дождь 10/0
[As op]
+20.0 +13.1 64 +23 +25 комфорт 1018.9 1004.4
15 24.05 СЗ 1-2
{4}
20 км {дождь} 10/0
[As op]
+19.1 +14.1 73 +21 +22 комфорт 1018.7 1004.1 +21.6 0.0
18 24.05 штиль 0
{3}
4000 м {дождь} 8/0
[Ac trans Ci fib]
+16.4 +13.9 85 +16 +16 тепло 1018.8 1004.1
21 24.05 СВ 3-6
{7}
4000 м 6/0
[Ac trans Ci fib]
+15.5 +10.4 72 +15 +15 тепло 1018.5 1003.7
00 25.05 СВ 4-7
{8}
4000 м ясно +12.7 +9.5 81 +11 +11 тепло 1019.0 1004.1
03 25.05 СВ 5-8
{9}
20 км ясно +12.2 +7.3 72 +10 +11 по сезону 1020.6 1005.7 +11.8
06 25.05 СВ 4-8
{11}
20 км 8/0
[Cs]
+14.7 +0.6 38 +14 +19 по сезону 1022.4 1007.5
09 25.05 С 6-12
{12}
20 км 3/0
[Ac trans]
+15.4 -1.7 31 +14 +19 по сезону 1023.3 1008.4
12 25.05 СВ 5-8
{12}
20 км 6/0
[Ac trans]
+16.2 -1.7 29 +15 +19 прохладно 1023.9 1009.0
15 25.05 СВ 5-9
{12}
20 км 6/0
[Ac trans]
+15.1 -1.4 32 +14 +15 по сезону 1024.9 1010.0 +16.2
18 25.05 СВ 3-6
{9}
4000 м ясно +11.2 -1.2 42 +10 +10 прохладно 1027.4 1012.3
21 25.05 СВ 2-3
{5}
4000 м ясно +8.1 -1.4 51 +7 +7 прохладно 1029.4 1014.0
00 26.05 В 2-2
{5}
4000 м ясно +3.5 -1.2 71 +1 +1 очень
холодно
1031.1 1015.5
03 26.05 СВ 2-3
{5}
20 км ясно +6.8 -2.2 53 +5 +7 холодно 1033.1 1017.7 +3.3
06 26.05 СВ 4-5
{8}
20 км ясно +11.3 -4.1 34 +10 +16 прохладно 1034.4 1019.2
09 26.05 СВ 3-6
{9}
20 км ясно +14.4 -3.6 29 +14 +27 опасность
простуды
1034.3 1019.2
12 26.05 СВ 3-6
{11}
20 км 1/0
[Ci sp]
+16.4 -3.8 25 +16 +25 по сезону 1033.0 1018.0
15 26.05 СЗ 2-4
{6}
20 км 1/0
[Ci sp]
+16.6 -3.0 26 +17 +19 по сезону 1031.3 1016.5 +17.0
18 26.05 ЮЗ 1-1
{4}
20 км 1/0
[Ci sp]
+9.4 +0.9 55 +9 +9 холодно 1031.3 1016.0
21 26.05 СВ 1-1
{2}
4000 м ясно +3.7 +1.9 88 +2 +2 очень
холодно
1031.2 1015.6
00 27.05 штиль 0
{1}
4000 м туман поземный 3/0
[Ac As]
+1.7 +0.6 92 +1 +1 очень
холодно
1031.4 1015.7
03 27.05 ЮЗ 1-1
{1}
20 км 8/0
[Ac As]
+9.6 +4.1 69 +9 +10 прохладно 1030.1 1014.8 +1.7
06 27.05 З 6-10
{10}
20 км 3/0
[Ci fib]
+17.3 +3.6 40 +17 +20 тепло 1027.7 1012.9
09 27.05 З 8-12
{13}
20 км 8/0
[Ac trans Ci]
+20.6 +3.4 32 +21 +23 комфорт 1024.9 1010.3
12 27.05 З 8-12
{14}
20 км 8/0
[Ac trans Ci]
+21.6 +2.1 28 +21 +23 комфорт 1021.5 1007.0
15 27.05 З 6-11
{13}
20 км 9/0
[Ac trans Cs]
+20.9 +4.1 33 +21 +22 комфорт 1018.9 1004.4 +22.7
18 27.05 З 4-7
{12}
20 км 10/3 300 м
[Sc Ac trans Cs]
+17.8 +5.8 45 +18 +18 тепло 1017.7 1003.0
21 27.05 СЗ 1-2
{17}
4000 м в посл. час ливневой дождь 10/10 300 м
[Sc]
+11.8 +10.6 92 +12 +12 по сезону 1019.7 1004.8
00 28.05 С 3-5
{6}
4000 м {ливн. осадки} 3/3 300 м
[Sc]
+10.5 +8.9 90 +8 +8 по сезону 1021.3 1006.3
03 28.05 С 2-4
{5}
20 км 8/8 300 м
[Sc]
+10.9 +8.5 85 +10 +10 по сезону 1022.8 1007.7 +9.5 3
06 28.05 С 4-6
{8}
20 км 6/6 600 м
[Cu med, cong]
+13.4 +5.8 60 +12 +15 по сезону 1024.3 1009.3

 

Местоположение метеостанции Арзамас (Нижегородская область, Россия): широта 55.37 долгота 43.78 высота над уровнем моря 124 м.

В архиве по умолчанию представлена погода в Арзамасе за последнюю неделю. Архивные данные за месяц целиком и за предыдущие месяцы, начиная с января 2011 года, Вы можете получить, выбрав интересующий диапазон дат из раскрывающегося списка и нажав кнопку "Ввод!".


*Определитесь, кто Вы:
робот инопланетянин человек

Внимание! Время в таблицах - всемирное. Для получения местного времени необходимо прибавить поправку, которая в Арзамасе равна 3 ч.

Смотрите также архив погоды в соседних городах и на ближайших метеорологических станциях:

Погода в Дальнем Константиново (Нижегородская область, Россия) (51 км)
Погода в Лукоянове (Нижегородская область, Россия) (59 км)
Погода в Павлово (Нижегородская область, Россия) (80 км)
Погода в Темникове (Мордовия, Россия) (89 км)
Погода в Нижнем Новгороде аэропорт (Нижегородская область, Россия) (95 км)
Погода в Нижнем Новгороде (Нижегородская область, Россия) (101 км)
Погода в Краснослободске (Мордовия, Россия) (105 км)
Погода в Выксе (Нижегородская область, Россия) (105 км)
Погода в Большом Болдино (Нижегородская область, Россия) (105 км)
Погода в Лысково (Нижегородская область, Россия) (106 км)

Пояснения к столбцам:

Ветер - указаны скорость ветра в м/с - средняя за 10 мин, порывы в срок и между сроками (в фигурных скобках) и направление, откуда дует ветер: С - северный, СВ - северо-восточный, В - восточный, ЮВ - юго-восточный, Ю - южный, ЮЗ - юго-западный, З - западный, СЗ - северо-западный.
Видимость - горизонтальная дальность видимости в метрах или километрах. При видимости от 1 до 10 км при отсутствии осадков обычно наблюдается дымка, при ухудшении видимости до 1 км и менее - туман. В сухую погоду видимость может ухудшаться дымом, пылью или мглою.
Явления - указаны атмосферные явления, наблюдавшиеся в срок или в последний час перед сроком; фигурными скобками обозначены явления, наблюдавшиеся между сроками (за 1-3 часа до срока); квадратными скобками обозначены град или гололедные отложения с указанием их диаметра в мм.
Облачность - указаны через наклонную черту общая и нижняя облачность в баллах и высота нижней границы облаков в метрах; квадратными скобками обозначены формы облаков: Ci - перистые, Cs - перисто-слоистые, Cc - перисто-кучевые, Ac - высококучевые, As - высокослоистые, Sc - слоисто-кучевые, Ns - слоисто-дождевые, Cu - кучевые, Cb - кучево-дождевые. Подробнее классификацию облаков см. в Атласе облаков (PDF).
T - Температура воздуха - температура, измеренная на высоте 2 м над землей.
Td - Температура точки росы - температура, при понижении до которой содержащийся в воздухе водяной пар достигнет насыщения.
f - Относительная влажность воздуха - влажноcть воздуха, измеренная на высоте 2 м над землей.
Te - Эффективная температура - температура, которую ощущает одетый по сезону человек в тени. Характеристика душности погоды. При расчете учитывается влияние влажности воздуха и скорости ветра на теплоощущения человека.
Tes - Эффективная температура на солнце - температура, которую ощущает человек, с поправкой на солнечный нагрев. Характеристика знойности погоды. Зависит от высоты солнца над горизонтом, облачности и скорости ветра. Ночью, в пасмурную погоду, а также при ветре 12 м/с и более поправка равна нулю.
P - Атмосферное давление - приведенное к уровню моря атмосферное давление.
Po - Атмосферное давление - измеренное на уровне метеостанции атмосферное давление.
Tmin - Минимальная температура - минимум температуры воздуха на высоте 2 м над землей.
Tmax - Максимальная температура - максимум температуры воздуха на высоте 2 м над землей.
R - Количество осадков - Количество выпавших осадков за период времени, мм. При наведении курсора мыши на число - период времени, за который выпало указанное количество осадков.
R24 - Количество осадков - Количество выпавших осадков за 24 часа, мм.
S - Снежный покров - Высота снежного покрова, см. При наведении курсора мыши на число - состояние снежного покрова и степень покрытия местности в баллах.